owner,sensor,date,latitude,longitude,vertical_datum,mass_concentration_of_oxygen_in_sea_water,qcFlag 
SCCF RECON,ioos:station:SCCF:12:1,2010-01-01T00:00:00Z,26.4966,-82.1479,2.39,6.97,1111122 
SCCF RECON,ioos:station:SCCF:12:1,2010-01-01T01:00:00Z,26.4966,-82.1479,2.47,6.69,1111122 
SCCF RECON,ioos:station:SCCF:12:1,2010-01-01T02:00:00Z,26.4966,-82.1479,2.599,6.63,1111122 
SCCF RECON,ioos:station:SCCF:12:1,2010-01-01T03:00:00Z,26.4966,-82.1479,2.72,6.59,1111122 
SCCF RECON,ioos:station:SCCF:12:1,2010-01-01T04:00:00Z,26.4966,-82.1479,2.79,6.58,1111122 
SCCF RECON,ioos:station:SCCF:12:1,2010-01-01T05:00:00Z,26.4966,-82.1479,2.81,6.38,1111122 
SCCF RECON,ioos:station:SCCF:12:1,2010-01-01T06:00:00Z,26.4966,-82.1479,2.75,6.57,1111122 
SCCF RECON,ioos:station:SCCF:12:1,2010-01-01T07:00:00Z,26.4966,-82.1479,2.63,6.69,1111122 
SCCF RECON,ioos:station:SCCF:12:1,2010-01-01T08:00:00Z,26.4966,-82.1479,2.473,6.66,1111122 
SCCF RECON,ioos:station:SCCF:12:1,2010-01-01T09:00:00Z,26.4966,-82.1479,2.31,6.33,1111122 
SCCF RECON,ioos:station:SCCF:12:1,2010-01-01T10:00:00Z,26.4966,-82.1479,2.148,6.46,1111122 
SCCF RECON,ioos:station:SCCF:12:1,2010-01-01T11:00:00Z,26.4966,-82.1479,1.995,6.35,1111122 
SCCF RECON,ioos:station:SCCF:12:1,2010-01-01T12:00:00Z,26.4966,-82.1479,1.87,6.63,1111122 
SCCF RECON,ioos:station:SCCF:12:1,2010-01-01T13:00:00Z,26.4966,-82.1479,1.77,6.27,1111122 
SCCF RECON,ioos:station:SCCF:12:1,2010-01-01T14:00:00Z,26.4966,-82.1479,1.78,6.56,1111122 
SCCF RECON,ioos:station:SCCF:12:1,2010-01-01T15:00:00Z,26.4966,-82.1479,1.95,6.57,1111122 
SCCF RECON,ioos:station:SCCF:12:1,2010-01-01T16:00:00Z,26.4966,-82.1479,2.122,6.51,1111122 
SCCF RECON,ioos:station:SCCF:12:1,2010-01-01T17:00:00Z,26.4966,-82.1479,2.31,6.58,1111122 
SCCF RECON,ioos:station:SCCF:12:1,2010-01-01T18:00:00Z,26.4966,-82.1479,2.465,6.58,1111122 
SCCF RECON,ioos:station:SCCF:12:1,2010-01-01T19:00:00Z,26.4966,-82.1479,2.51,6.61,1111122 
SCCF RECON,ioos:station:SCCF:12:1,2010-01-01T20:00:00Z,26.4966,-82.1479,2.52,6.58,1111122 
SCCF RECON,ioos:station:SCCF:12:1,2010-01-01T21:00:00Z,26.4966,-82.1479,2.433,6.51,1111122 
SCCF RECON,ioos:station:SCCF:12:1,2010-01-01T22:00:00Z,26.4966,-82.1479,2.294,6.39,1111122 
SCCF RECON,ioos:station:SCCF:12:1,2010-01-01T23:00:00Z,26.4966,-82.1479,2.193,6.47,1111122 
SCCF RECON,ioos:station:SCCF:12:1,2010-01-02T00:00:00Z,26.4966,-82.1479,2.155,6.57,1111122 
SCCF RECON,ioos:station:SCCF:12:1,2010-01-02T01:00:00Z,26.4966,-82.1479,2.177,6.49,1111122 
SCCF RECON,ioos:station:SCCF:12:1,2010-01-02T02:00:00Z,26.4966,-82.1479,2.232,6.51,1111122 
SCCF RECON,ioos:station:SCCF:12:1,2010-01-02T03:00:00Z,26.4966,-82.1479,2.36,6.49,1111122 
SCCF RECON,ioos:station:SCCF:12:1,2010-01-02T04:00:00Z,26.4966,-82.1479,2.452,6.55,1111122 
SCCF RECON,ioos:station:SCCF:12:1,2010-01-02T05:00:00Z,26.4966,-82.1479,2.509,6.53,1111122 
SCCF RECON,ioos:station:SCCF:12:1,2010-01-02T06:00:00Z,26.4966,-82.1479,2.53,6.46,1111122 
SCCF RECON,ioos:station:SCCF:12:1,2010-01-02T07:00:00Z,26.4966,-82.1479,2.476,6.53,1111122 
SCCF RECON,ioos:station:SCCF:12:1,2010-01-02T08:00:00Z,26.4966,-82.1479,2.398,6.59,1111122 
SCCF RECON,ioos:station:SCCF:12:1,2010-01-02T09:00:00Z,26.4966,-82.1479,2.286,6.51,1111122 
SCCF RECON,ioos:station:SCCF:12:1,2010-01-02T10:00:00Z,26.4966,-82.1479,2.13,6.5,1111122 
SCCF RECON,ioos:station:SCCF:12:1,2010-01-02T11:00:00Z,26.4966,-82.1479,1.992,6.51,1111122 
SCCF RECON,ioos:station:SCCF:12:1,2010-01-02T12:00:00Z,26.4966,-82.1479,1.857,6.48,1111122 
SCCF RECON,ioos:station:SCCF:12:1,2010-01-02T13:00:00Z,26.4966,-82.1479,1.747,6.61,1111122 
SCCF RECON,ioos:station:SCCF:12:1,2010-01-02T14:00:00Z,26.4966,-82.1479,1.644,6.72,1111122 
SCCF RECON,ioos:station:SCCF:12:1,2010-01-02T15:00:00Z,26.4966,-82.1479,1.593,6.66,1111122 
SCCF RECON,ioos:station:SCCF:12:1,2010-01-02T16:00:00Z,26.4966,-82.1479,1.718,6.68,1111122 
SCCF RECON,ioos:station:SCCF:12:1,2010-01-02T17:00:00Z,26.4966,-82.1479,1.909,6.68,1111122 
SCCF RECON,ioos:station:SCCF:12:1,2010-01-02T18:00:00Z,26.4966,-82.1479,2.046,6.9,1111122 
SCCF RECON,ioos:station:SCCF:12:1,2010-01-02T19:00:00Z,26.4966,-82.1479,2.161,7.06,1111122 
SCCF RECON,ioos:station:SCCF:12:1,2010-01-02T20:00:00Z,26.4966,-82.1479,2.227,7.08,1111122 
SCCF RECON,ioos:station:SCCF:12:1,2010-01-02T21:00:00Z,26.4966,-82.1479,2.23,6.99,1111122 
SCCF RECON,ioos:station:SCCF:12:1,2010-01-02T22:00:00Z,26.4966,-82.1479,2.188,7.1,1111122 
SCCF RECON,ioos:station:SCCF:12:1,2010-01-02T23:00:00Z,26.4966,-82.1479,2.12,7.0,1111122 
SCCF RECON,ioos:station:SCCF:12:1,2010-01-03T00:00:00Z,26.4966,-82.1479,2.098,6.79,1111122 
SCCF RECON,ioos:station:SCCF:12:1,2010-01-03T01:00:00Z,26.4966,-82.1479,2.122,6.86,1111122 
SCCF RECON,ioos:station:SCCF:12:1,2010-01-03T02:00:00Z,26.4966,-82.1479,2.17,6.91,1111122 
SCCF RECON,ioos:station:SCCF:12:1,2010-01-03T03:00:00Z,26.4966,-82.1479,2.26,6.79,1111122 
SCCF RECON,ioos:station:SCCF:12:1,2010-01-03T04:00:00Z,26.4966,-82.1479,2.408,6.78,1111122 
SCCF RECON,ioos:station:SCCF:12:1,2010-01-03T05:00:00Z,26.4966,-82.1479,2.533,6.47,1111122 
SCCF RECON,ioos:station:SCCF:12:1,2010-01-03T06:00:00Z,26.4966,-82.1479,2.604,6.53,1111122 
SCCF RECON,ioos:station:SCCF:12:1,2010-01-03T07:00:00Z,26.4966,-82.1479,2.602,6.5,1111122 
SCCF RECON,ioos:station:SCCF:12:1,2010-01-03T08:00:00Z,26.4966,-82.1479,2.53,6.64,1111122 
SCCF RECON,ioos:station:SCCF:12:1,2010-01-03T09:00:00Z,26.4966,-82.1479,2.423,6.49,1111122 
SCCF RECON,ioos:station:SCCF:12:1,2010-01-03T10:00:00Z,26.4966,-82.1479,2.28,6.51,1111122 
SCCF RECON,ioos:station:SCCF:12:1,2010-01-03T11:00:00Z,26.4966,-82.1479,2.143,6.59,1111122 
SCCF RECON,ioos:station:SCCF:12:1,2010-01-03T12:00:00Z,26.4966,-82.1479,2.016,6.65,1111122 
SCCF RECON,ioos:station:SCCF:12:1,2010-01-03T13:00:00Z,26.4966,-82.1479,1.897,6.61,1111122 
SCCF RECON,ioos:station:SCCF:12:1,2010-01-03T14:00:00Z,26.4966,-82.1479,1.8,6.61,1111122 
SCCF RECON,ioos:station:SCCF:12:1,2010-01-03T15:00:00Z,26.4966,-82.1479,1.755,6.58,1111122 
SCCF RECON,ioos:station:SCCF:12:1,2010-01-03T16:00:00Z,26.4966,-82.1479,1.811,6.71,1111122 
SCCF RECON,ioos:station:SCCF:12:1,2010-01-03T17:00:00Z,26.4966,-82.1479,1.985,6.62,1111122 
SCCF RECON,ioos:station:SCCF:12:1,2010-01-03T18:00:00Z,26.4966,-82.1479,2.11,6.66,1111122 
SCCF RECON,ioos:station:SCCF:12:1,2010-01-03T19:00:00Z,26.4966,-82.1479,2.21,6.63,1111122 
SCCF RECON,ioos:station:SCCF:12:1,2010-01-03T20:00:00Z,26.4966,-82.1479,2.3,6.84,1111122 
SCCF RECON,ioos:station:SCCF:12:1,2010-01-03T21:00:00Z,26.4966,-82.1479,2.329,6.91,1111122 
SCCF RECON,ioos:station:SCCF:12:1,2010-01-03T22:00:00Z,26.4966,-82.1479,2.266,6.86,1111122 
SCCF RECON,ioos:station:SCCF:12:1,2010-01-03T23:00:00Z,26.4966,-82.1479,2.156,6.83,1111122 
SCCF RECON,ioos:station:SCCF:12:1,2010-01-04T00:00:00Z,26.4966,-82.1479,2.069,6.6,1111122 
SCCF RECON,ioos:station:SCCF:12:1,2010-01-04T01:00:00Z,26.4966,-82.1479,2.026,6.82,1111122 
SCCF RECON,ioos:station:SCCF:12:1,2010-01-04T02:00:00Z,26.4966,-82.1479,2.024,6.76,1111122 
SCCF RECON,ioos:station:SCCF:12:1,2010-01-04T03:00:00Z,26.4966,-82.1479,2.111,6.67,1111122 
SCCF RECON,ioos:station:SCCF:12:1,2010-01-04T04:00:00Z,26.4966,-82.1479,2.235,6.86,1111122 
SCCF RECON,ioos:station:SCCF:12:1,2010-01-04T05:00:00Z,26.4966,-82.1479,2.37,6.82,1111122 
SCCF RECON,ioos:station:SCCF:12:1,2010-01-04T06:00:00Z,26.4966,-82.1479,2.465,6.67,1111122 
SCCF RECON,ioos:station:SCCF:12:1,2010-01-04T07:00:00Z,26.4966,-82.1479,2.518,6.75,1111122 
SCCF RECON,ioos:station:SCCF:12:1,2010-01-04T08:00:00Z,26.4966,-82.1479,2.528,6.8,1111122 
SCCF RECON,ioos:station:SCCF:12:1,2010-01-04T09:00:00Z,26.4966,-82.1479,2.49,6.83,1111122 
SCCF RECON,ioos:station:SCCF:12:1,2010-01-04T10:00:00Z,26.4966,-82.1479,2.391,6.79,1111122 
SCCF RECON,ioos:station:SCCF:12:1,2010-01-04T11:00:00Z,26.4966,-82.1479,2.26,6.72,1111122 
SCCF RECON,ioos:station:SCCF:12:1,2010-01-04T12:00:00Z,26.4966,-82.1479,2.128,6.68,1111122 
SCCF RECON,ioos:station:SCCF:12:1,2010-01-04T13:00:00Z,26.4966,-82.1479,2.019,6.58,1111122 
SCCF RECON,ioos:station:SCCF:12:1,2010-01-04T14:00:00Z,26.4966,-82.1479,1.92,6.54,1111122 
SCCF RECON,ioos:station:SCCF:12:1,2010-01-04T15:00:00Z,26.4966,-82.1479,1.851,6.9,1111122 
SCCF RECON,ioos:station:SCCF:12:1,2010-01-04T16:00:00Z,26.4966,-82.1479,1.86,6.92,1111122 
SCCF RECON,ioos:station:SCCF:12:1,2010-01-04T17:00:00Z,26.4966,-82.1479,2.0,7.06,1111122 
SCCF RECON,ioos:station:SCCF:12:1,2010-01-04T18:00:00Z,26.4966,-82.1479,2.14,6.89,1111122 
SCCF RECON,ioos:station:SCCF:12:1,2010-01-04T19:00:00Z,26.4966,-82.1479,2.27,7.09,1111122 
SCCF RECON,ioos:station:SCCF:12:1,2010-01-04T20:00:00Z,26.4966,-82.1479,2.374,7.13,1111122 
SCCF RECON,ioos:station:SCCF:12:1,2010-01-04T21:00:00Z,26.4966,-82.1479,2.45,7.25,1111122 
SCCF RECON,ioos:station:SCCF:12:1,2010-01-04T22:00:00Z,26.4966,-82.1479,2.442,7.28,1111122 
SCCF RECON,ioos:station:SCCF:12:1,2010-01-04T23:00:00Z,26.4966,-82.1479,2.361,7.32,1111122 
SCCF RECON,ioos:station:SCCF:12:1,2010-01-05T00:00:00Z,26.4966,-82.1479,2.259,7.17,1111122 
SCCF RECON,ioos:station:SCCF:12:1,2010-01-05T01:00:00Z,26.4966,-82.1479,2.171,7.15,1111122 
SCCF RECON,ioos:station:SCCF:12:1,2010-01-05T02:00:00Z,26.4966,-82.1479,2.129,7.11,1111122 
SCCF RECON,ioos:station:SCCF:12:1,2010-01-05T03:00:00Z,26.4966,-82.1479,2.09,7.14,1111122 
SCCF RECON,ioos:station:SCCF:12:1,2010-01-05T04:00:00Z,26.4966,-82.1479,2.12,7.01,1111122 
SCCF RECON,ioos:station:SCCF:12:1,2010-01-05T05:00:00Z,26.4966,-82.1479,2.21,7.16,1111122 
SCCF RECON,ioos:station:SCCF:12:1,2010-01-05T06:00:00Z,26.4966,-82.1479,2.336,7.12,1111122 
SCCF RECON,ioos:station:SCCF:12:1,2010-01-05T07:00:00Z,26.4966,-82.1479,2.43,6.95,1111122 
SCCF RECON,ioos:station:SCCF:12:1,2010-01-05T08:00:00Z,26.4966,-82.1479,2.489,7.02,1111122 
SCCF RECON,ioos:station:SCCF:12:1,2010-01-05T09:00:00Z,26.4966,-82.1479,2.49,7.03,1111122 
SCCF RECON,ioos:station:SCCF:12:1,2010-01-05T10:00:00Z,26.4966,-82.1479,2.45,7.16,1111122 
SCCF RECON,ioos:station:SCCF:12:1,2010-01-05T11:00:00Z,26.4966,-82.1479,2.36,7.02,1111122 
SCCF RECON,ioos:station:SCCF:12:1,2010-01-05T12:00:00Z,26.4966,-82.1479,2.25,7.03,1111122 
SCCF RECON,ioos:station:SCCF:12:1,2010-01-05T13:00:00Z,26.4966,-82.1479,2.143,6.72,1111122 
SCCF RECON,ioos:station:SCCF:12:1,2010-01-05T14:00:00Z,26.4966,-82.1479,2.036,6.9,1111122 
SCCF RECON,ioos:station:SCCF:12:1,2010-01-05T15:00:00Z,26.4966,-82.1479,1.958,7.04,1111122 
SCCF RECON,ioos:station:SCCF:12:1,2010-01-05T16:00:00Z,26.4966,-82.1479,1.91,7.21,1111122 
SCCF RECON,ioos:station:SCCF:12:1,2010-01-05T17:00:00Z,26.4966,-82.1479,1.92,7.19,1111122 
SCCF RECON,ioos:station:SCCF:12:1,2010-01-05T18:00:00Z,26.4966,-82.1479,2.021,7.14,1111122 
SCCF RECON,ioos:station:SCCF:12:1,2010-01-05T19:00:00Z,26.4966,-82.1479,2.158,7.22,1111122 
SCCF RECON,ioos:station:SCCF:12:1,2010-01-05T20:00:00Z,26.4966,-82.1479,2.274,7.09,1111122 
SCCF RECON,ioos:station:SCCF:12:1,2010-01-05T21:00:00Z,26.4966,-82.1479,2.332,7.17,1111122 
SCCF RECON,ioos:station:SCCF:12:1,2010-01-05T22:00:00Z,26.4966,-82.1479,2.326,7.26,1111122 
SCCF RECON,ioos:station:SCCF:12:1,2010-01-05T23:00:00Z,26.4966,-82.1479,2.271,7.26,1111122 
SCCF RECON,ioos:station:SCCF:12:1,2010-01-06T00:00:00Z,26.4966,-82.1479,2.205,7.3,1111122 
SCCF RECON,ioos:station:SCCF:12:1,2010-01-06T01:00:00Z,26.4966,-82.1479,2.115,7.24,1111122 
SCCF RECON,ioos:station:SCCF:12:1,2010-01-06T02:00:00Z,26.4966,-82.1479,2.03,7.28,1111122 
SCCF RECON,ioos:station:SCCF:12:1,2010-01-06T03:00:00Z,26.4966,-82.1479,1.978,7.33,1111122 
SCCF RECON,ioos:station:SCCF:12:1,2010-01-06T04:00:00Z,26.4966,-82.1479,1.95,7.22,1111122 
SCCF RECON,ioos:station:SCCF:12:1,2010-01-06T05:00:00Z,26.4966,-82.1479,1.95,7.32,1111122 
SCCF RECON,ioos:station:SCCF:12:1,2010-01-06T06:00:00Z,26.4966,-82.1479,2.0,7.26,1111122 
SCCF RECON,ioos:station:SCCF:12:1,2010-01-06T07:00:00Z,26.4966,-82.1479,2.09,7.07,1111122 
SCCF RECON,ioos:station:SCCF:12:1,2010-01-06T08:00:00Z,26.4966,-82.1479,2.18,6.77,1111122 
SCCF RECON,ioos:station:SCCF:12:1,2010-01-06T09:00:00Z,26.4966,-82.1479,2.25,6.95,1111122 
SCCF RECON,ioos:station:SCCF:12:1,2010-01-06T10:00:00Z,26.4966,-82.1479,2.29,7.2,1111122 
SCCF RECON,ioos:station:SCCF:12:1,2010-01-06T11:00:00Z,26.4966,-82.1479,2.27,7.22,1111122 
SCCF RECON,ioos:station:SCCF:12:1,2010-01-06T12:00:00Z,26.4966,-82.1479,2.23,7.08,1111122 
SCCF RECON,ioos:station:SCCF:12:1,2010-01-06T13:00:00Z,26.4966,-82.1479,2.15,6.99,1111122 
SCCF RECON,ioos:station:SCCF:12:1,2010-01-06T14:00:00Z,26.4966,-82.1479,2.081,7.02,1111122 
SCCF RECON,ioos:station:SCCF:12:1,2010-01-06T15:00:00Z,26.4966,-82.1479,2.01,7.12,1111122 
SCCF RECON,ioos:station:SCCF:12:1,2010-01-06T16:00:00Z,26.4966,-82.1479,1.978,7.25,1111122 
SCCF RECON,ioos:station:SCCF:12:1,2010-01-06T17:00:00Z,26.4966,-82.1479,1.978,7.3,1111122 
SCCF RECON,ioos:station:SCCF:12:1,2010-01-06T18:00:00Z,26.4966,-82.1479,2.026,7.21,1111122 
SCCF RECON,ioos:station:SCCF:12:1,2010-01-06T19:00:00Z,26.4966,-82.1479,2.13,7.38,1111122 
SCCF RECON,ioos:station:SCCF:12:1,2010-01-06T20:00:00Z,26.4966,-82.1479,2.238,7.45,1111122 
SCCF RECON,ioos:station:SCCF:12:1,2010-01-06T21:00:00Z,26.4966,-82.1479,2.327,7.44,1111122 
SCCF RECON,ioos:station:SCCF:12:1,2010-01-06T22:00:00Z,26.4966,-82.1479,2.378,7.46,1111122 
SCCF RECON,ioos:station:SCCF:12:1,2010-01-06T23:00:00Z,26.4966,-82.1479,2.383,7.38,1111122 
SCCF RECON,ioos:station:SCCF:12:1,2010-01-07T00:00:00Z,26.4966,-82.1479,2.329,7.36,1111122 
SCCF RECON,ioos:station:SCCF:12:1,2010-01-07T01:00:00Z,26.4966,-82.1479,2.236,7.42,1111122 
SCCF RECON,ioos:station:SCCF:12:1,2010-01-07T02:00:00Z,26.4966,-82.1479,2.149,7.48,1111122 
SCCF RECON,ioos:station:SCCF:12:1,2010-01-07T03:00:00Z,26.4966,-82.1479,2.064,7.49,1111122 
SCCF RECON,ioos:station:SCCF:12:1,2010-01-07T04:00:00Z,26.4966,-82.1479,2.005,7.54,1111122 
SCCF RECON,ioos:station:SCCF:12:1,2010-01-07T05:00:00Z,26.4966,-82.1479,1.97,7.54,1111122 
SCCF RECON,ioos:station:SCCF:12:1,2010-01-07T06:00:00Z,26.4966,-82.1479,1.96,7.63,1111122 
SCCF RECON,ioos:station:SCCF:12:1,2010-01-07T07:00:00Z,26.4966,-82.1479,1.982,7.6,1111122 
SCCF RECON,ioos:station:SCCF:12:1,2010-01-07T08:00:00Z,26.4966,-82.1479,2.05,7.6,1111122 
SCCF RECON,ioos:station:SCCF:12:1,2010-01-07T09:00:00Z,26.4966,-82.1479,2.13,7.53,1111122 
SCCF RECON,ioos:station:SCCF:12:1,2010-01-07T10:00:00Z,26.4966,-82.1479,2.2,7.49,1111122 
SCCF RECON,ioos:station:SCCF:12:1,2010-01-07T11:00:00Z,26.4966,-82.1479,2.25,7.6,1111122 
SCCF RECON,ioos:station:SCCF:12:1,2010-01-07T12:00:00Z,26.4966,-82.1479,2.25,7.58,1111122 
SCCF RECON,ioos:station:SCCF:12:1,2010-01-07T13:00:00Z,26.4966,-82.1479,2.223,7.54,1111122 
SCCF RECON,ioos:station:SCCF:12:1,2010-01-07T14:00:00Z,26.4966,-82.1479,2.18,7.53,1111122 
SCCF RECON,ioos:station:SCCF:12:1,2010-01-07T15:00:00Z,26.4966,-82.1479,2.139,7.51,1111122 
SCCF RECON,ioos:station:SCCF:12:1,2010-01-07T16:00:00Z,26.4966,-82.1479,2.073,7.39,1111122 
SCCF RECON,ioos:station:SCCF:12:1,2010-01-07T17:00:00Z,26.4966,-82.1479,2.11,7.5,1111122 
SCCF RECON,ioos:station:SCCF:12:1,2010-01-07T18:00:00Z,26.4966,-82.1479,2.158,7.57,1111122 
SCCF RECON,ioos:station:SCCF:12:1,2010-01-07T19:00:00Z,26.4966,-82.1479,2.23,7.7,1111122 
SCCF RECON,ioos:station:SCCF:12:1,2010-01-07T20:00:00Z,26.4966,-82.1479,2.337,7.68,1111122 
SCCF RECON,ioos:station:SCCF:12:1,2010-01-07T21:00:00Z,26.4966,-82.1479,2.432,7.84,1111122 
SCCF RECON,ioos:station:SCCF:12:1,2010-01-07T22:00:00Z,26.4966,-82.1479,2.49,7.94,1111122 
SCCF RECON,ioos:station:SCCF:12:1,2010-01-07T23:00:00Z,26.4966,-82.1479,2.5,7.89,1111122 
SCCF RECON,ioos:station:SCCF:12:1,2010-01-08T00:00:00Z,26.4966,-82.1479,2.49,7.78,1111122 
SCCF RECON,ioos:station:SCCF:12:1,2010-01-08T01:00:00Z,26.4966,-82.1479,2.42,7.79,1111122 
SCCF RECON,ioos:station:SCCF:12:1,2010-01-08T02:00:00Z,26.4966,-82.1479,2.34,7.75,1111122 
SCCF RECON,ioos:station:SCCF:12:1,2010-01-08T03:00:00Z,26.4966,-82.1479,2.24,7.73,1111122 
SCCF RECON,ioos:station:SCCF:12:1,2010-01-08T04:00:00Z,26.4966,-82.1479,2.144,7.55,1111122 
SCCF RECON,ioos:station:SCCF:12:1,2010-01-08T05:00:00Z,26.4966,-82.1479,2.06,7.67,1111122 
SCCF RECON,ioos:station:SCCF:12:1,2010-01-08T06:00:00Z,26.4966,-82.1479,1.979,7.67,1111122 
SCCF RECON,ioos:station:SCCF:12:1,2010-01-08T07:00:00Z,26.4966,-82.1479,1.92,7.63,1111122 
SCCF RECON,ioos:station:SCCF:12:1,2010-01-08T08:00:00Z,26.4966,-82.1479,1.946,7.76,1111122 
SCCF RECON,ioos:station:SCCF:12:1,2010-01-08T09:00:00Z,26.4966,-82.1479,2.059,7.62,1111122 
SCCF RECON,ioos:station:SCCF:12:1,2010-01-08T10:00:00Z,26.4966,-82.1479,2.14,7.63,1111122 
SCCF RECON,ioos:station:SCCF:12:1,2010-01-08T11:00:00Z,26.4966,-82.1479,2.21,7.64,1111122 
SCCF RECON,ioos:station:SCCF:12:1,2010-01-08T12:00:00Z,26.4966,-82.1479,2.25,7.55,1111122 
SCCF RECON,ioos:station:SCCF:12:1,2010-01-08T13:00:00Z,26.4966,-82.1479,2.29,7.53,1111122 
SCCF RECON,ioos:station:SCCF:12:1,2010-01-08T14:00:00Z,26.4966,-82.1479,2.29,7.58,1111122 
SCCF RECON,ioos:station:SCCF:12:1,2010-01-08T15:00:00Z,26.4966,-82.1479,2.26,7.69,1111122 
SCCF RECON,ioos:station:SCCF:12:1,2010-01-08T16:00:00Z,26.4966,-82.1479,2.29,7.65,1111122 
SCCF RECON,ioos:station:SCCF:12:1,2010-01-08T17:00:00Z,26.4966,-82.1479,2.293,7.56,1111122 
SCCF RECON,ioos:station:SCCF:12:1,2010-01-08T18:00:00Z,26.4966,-82.1479,2.287,7.63,1111122 
SCCF RECON,ioos:station:SCCF:12:1,2010-01-08T19:00:00Z,26.4966,-82.1479,2.3,7.5,1111122 
SCCF RECON,ioos:station:SCCF:12:1,2010-01-08T20:00:00Z,26.4966,-82.1479,2.37,7.61,1111122 
SCCF RECON,ioos:station:SCCF:12:1,2010-01-08T21:00:00Z,26.4966,-82.1479,2.47,7.66,1111122 
SCCF RECON,ioos:station:SCCF:12:1,2010-01-08T22:00:00Z,26.4966,-82.1479,2.56,7.58,1111122 
SCCF RECON,ioos:station:SCCF:12:1,2010-01-08T23:00:00Z,26.4966,-82.1479,2.59,7.31,1111122 
SCCF RECON,ioos:station:SCCF:12:1,2010-01-09T00:00:00Z,26.4966,-82.1479,2.57,7.63,1111122 
SCCF RECON,ioos:station:SCCF:12:1,2010-01-09T01:00:00Z,26.4966,-82.1479,2.5,7.63,1111122 
SCCF RECON,ioos:station:SCCF:12:1,2010-01-09T02:00:00Z,26.4966,-82.1479,2.417,7.58,1111122 
SCCF RECON,ioos:station:SCCF:12:1,2010-01-09T03:00:00Z,26.4966,-82.1479,2.318,7.5,1111122 
SCCF RECON,ioos:station:SCCF:12:1,2010-01-09T04:00:00Z,26.4966,-82.1479,2.239,7.48,1111122 
SCCF RECON,ioos:station:SCCF:12:1,2010-01-09T05:00:00Z,26.4966,-82.1479,2.14,7.43,1111122 
SCCF RECON,ioos:station:SCCF:12:1,2010-01-09T06:00:00Z,26.4966,-82.1479,2.049,7.44,1111122 
SCCF RECON,ioos:station:SCCF:12:1,2010-01-09T07:00:00Z,26.4966,-82.1479,1.95,7.42,1111122 
SCCF RECON,ioos:station:SCCF:12:1,2010-01-09T08:00:00Z,26.4966,-82.1479,1.869,7.48,1111122 
SCCF RECON,ioos:station:SCCF:12:1,2010-01-09T09:00:00Z,26.4966,-82.1479,1.823,7.49,1111122 
SCCF RECON,ioos:station:SCCF:12:1,2010-01-09T10:00:00Z,26.4966,-82.1479,1.845,7.54,1111122 
SCCF RECON,ioos:station:SCCF:12:1,2010-01-09T11:00:00Z,26.4966,-82.1479,1.899,7.52,1111122 
SCCF RECON,ioos:station:SCCF:12:1,2010-01-09T12:00:00Z,26.4966,-82.1479,1.929,7.4,1111122 
SCCF RECON,ioos:station:SCCF:12:1,2010-01-09T13:00:00Z,26.4966,-82.1479,1.953,7.38,1111122 
SCCF RECON,ioos:station:SCCF:12:1,2010-01-09T14:00:00Z,26.4966,-82.1479,1.988,7.42,1111122 
SCCF RECON,ioos:station:SCCF:12:1,2010-01-09T15:00:00Z,26.4966,-82.1479,2.032,7.45,1111122 
SCCF RECON,ioos:station:SCCF:12:1,2010-01-09T16:00:00Z,26.4966,-82.1479,2.041,7.41,1111122 
SCCF RECON,ioos:station:SCCF:12:1,2010-01-09T17:00:00Z,26.4966,-82.1479,2.05,7.44,1111122 
SCCF RECON,ioos:station:SCCF:12:1,2010-01-09T18:00:00Z,26.4966,-82.1479,2.05,7.52,1111122 
SCCF RECON,ioos:station:SCCF:12:1,2010-01-09T19:00:00Z,26.4966,-82.1479,2.042,7.58,1111122 
SCCF RECON,ioos:station:SCCF:12:1,2010-01-09T20:00:00Z,26.4966,-82.1479,2.059,7.62,1111122 
SCCF RECON,ioos:station:SCCF:12:1,2010-01-09T21:00:00Z,26.4966,-82.1479,2.08,7.64,1111122 
SCCF RECON,ioos:station:SCCF:12:1,2010-01-09T22:00:00Z,26.4966,-82.1479,2.159,7.65,1111122 
SCCF RECON,ioos:station:SCCF:12:1,2010-01-09T23:00:00Z,26.4966,-82.1479,2.269,7.62,1111122 
SCCF RECON,ioos:station:SCCF:12:1,2010-01-10T00:00:00Z,26.4966,-82.1479,2.341,7.57,1111122 
SCCF RECON,ioos:station:SCCF:12:1,2010-01-10T01:00:00Z,26.4966,-82.1479,2.354,7.52,1111122 
SCCF RECON,ioos:station:SCCF:12:1,2010-01-10T02:00:00Z,26.4966,-82.1479,2.324,7.49,1111122 
SCCF RECON,ioos:station:SCCF:12:1,2010-01-10T03:00:00Z,26.4966,-82.1479,2.276,7.48,1111122 
SCCF RECON,ioos:station:SCCF:12:1,2010-01-10T04:00:00Z,26.4966,-82.1479,2.196,7.47,1111122 
SCCF RECON,ioos:station:SCCF:12:1,2010-01-10T05:00:00Z,26.4966,-82.1479,2.116,7.53,1111122 
SCCF RECON,ioos:station:SCCF:12:1,2010-01-10T06:00:00Z,26.4966,-82.1479,2.037,7.59,1111122 
SCCF RECON,ioos:station:SCCF:12:1,2010-01-10T07:00:00Z,26.4966,-82.1479,1.942,7.64,1111122 
SCCF RECON,ioos:station:SCCF:12:1,2010-01-10T08:00:00Z,26.4966,-82.1479,1.846,7.62,1111122 
SCCF RECON,ioos:station:SCCF:12:1,2010-01-10T09:00:00Z,26.4966,-82.1479,1.778,7.55,1111122 
SCCF RECON,ioos:station:SCCF:12:1,2010-01-10T10:00:00Z,26.4966,-82.1479,1.719,7.66,1111122 
SCCF RECON,ioos:station:SCCF:12:1,2010-01-10T11:00:00Z,26.4966,-82.1479,1.72,7.73,1111122 
SCCF RECON,ioos:station:SCCF:12:1,2010-01-10T12:00:00Z,26.4966,-82.1479,1.77,7.81,1111122 
SCCF RECON,ioos:station:SCCF:12:1,2010-01-10T13:00:00Z,26.4966,-82.1479,1.813,7.81,1111122 
SCCF RECON,ioos:station:SCCF:12:1,2010-01-10T14:00:00Z,26.4966,-82.1479,1.923,7.83,1111122 
SCCF RECON,ioos:station:SCCF:12:1,2010-01-10T15:00:00Z,26.4966,-82.1479,1.975,7.85,1111122 
SCCF RECON,ioos:station:SCCF:12:1,2010-01-10T16:00:00Z,26.4966,-82.1479,1.998,7.89,1111122 
SCCF RECON,ioos:station:SCCF:12:1,2010-01-10T17:00:00Z,26.4966,-82.1479,1.977,7.95,1111122 
SCCF RECON,ioos:station:SCCF:12:1,2010-01-10T18:00:00Z,26.4966,-82.1479,1.974,7.98,1111122 
SCCF RECON,ioos:station:SCCF:12:1,2010-01-10T19:00:00Z,26.4966,-82.1479,1.975,8.02,1111122 
SCCF RECON,ioos:station:SCCF:12:1,2010-01-10T20:00:00Z,26.4966,-82.1479,1.963,8.07,1111122 
SCCF RECON,ioos:station:SCCF:12:1,2010-01-10T21:00:00Z,26.4966,-82.1479,1.989,8.06,1111122 
SCCF RECON,ioos:station:SCCF:12:1,2010-01-10T22:00:00Z,26.4966,-82.1479,2.058,8.05,1111122 
SCCF RECON,ioos:station:SCCF:12:1,2010-01-10T23:00:00Z,26.4966,-82.1479,2.14,8.13,1111122 
SCCF RECON,ioos:station:SCCF:12:1,2010-01-11T00:00:00Z,26.4966,-82.1479,2.25,8.1,1111122 
SCCF RECON,ioos:station:SCCF:12:1,2010-01-11T01:00:00Z,26.4966,-82.1479,2.351,8.06,1111122 
SCCF RECON,ioos:station:SCCF:12:1,2010-01-11T02:00:00Z,26.4966,-82.1479,2.355,7.98,1111122 
SCCF RECON,ioos:station:SCCF:12:1,2010-01-11T03:00:00Z,26.4966,-82.1479,2.314,7.96,1111122 
SCCF RECON,ioos:station:SCCF:12:1,2010-01-11T04:00:00Z,26.4966,-82.1479,2.25,7.87,1111122 
SCCF RECON,ioos:station:SCCF:12:1,2010-01-11T05:00:00Z,26.4966,-82.1479,2.147,7.9,1111122 
SCCF RECON,ioos:station:SCCF:12:1,2010-01-11T06:00:00Z,26.4966,-82.1479,2.034,7.85,1111122 
SCCF RECON,ioos:station:SCCF:12:1,2010-01-11T07:00:00Z,26.4966,-82.1479,1.91,7.86,1111122 
SCCF RECON,ioos:station:SCCF:12:1,2010-01-11T08:00:00Z,26.4966,-82.1479,1.809,7.86,1111122 
SCCF RECON,ioos:station:SCCF:12:1,2010-01-11T09:00:00Z,26.4966,-82.1479,1.722,7.85,1111122 
SCCF RECON,ioos:station:SCCF:12:1,2010-01-11T10:00:00Z,26.4966,-82.1479,1.663,7.94,1111122 
SCCF RECON,ioos:station:SCCF:12:1,2010-01-11T11:00:00Z,26.4966,-82.1479,1.66,7.99,1111122 
SCCF RECON,ioos:station:SCCF:12:1,2010-01-11T12:00:00Z,26.4966,-82.1479,1.727,7.97,1111122 
SCCF RECON,ioos:station:SCCF:12:1,2010-01-11T13:00:00Z,26.4966,-82.1479,1.84,8.04,1111122 
SCCF RECON,ioos:station:SCCF:12:1,2010-01-11T14:00:00Z,26.4966,-82.1479,1.949,8.03,1111122 
SCCF RECON,ioos:station:SCCF:12:1,2010-01-11T15:00:00Z,26.4966,-82.1479,2.049,8.08,1111122 
SCCF RECON,ioos:station:SCCF:12:1,2010-01-11T16:00:00Z,26.4966,-82.1479,2.137,8.1,1111122 
SCCF RECON,ioos:station:SCCF:12:1,2010-01-11T17:00:00Z,26.4966,-82.1479,2.207,8.1,1111122 
SCCF RECON,ioos:station:SCCF:12:1,2010-01-11T18:00:00Z,26.4966,-82.1479,2.24,8.18,1111122 
SCCF RECON,ioos:station:SCCF:12:1,2010-01-11T19:00:00Z,26.4966,-82.1479,2.224,8.18,1111122 
SCCF RECON,ioos:station:SCCF:12:1,2010-01-11T20:00:00Z,26.4966,-82.1479,2.19,8.16,1111122 